| time (UTC) | temp F | wind direction | speed MPH | gust MPH | rain 1hr in | rain 24hr in | rain mn in | humidity % | barometer mb |
| 20260507033018 | 81 | 136 | 0.0 | 1.0 | 0.00 | 0.00 | 0.00 | 27 | 996.0 |
| 20260507031518 | 81 | 157 | 0.0 | 0.0 | 0.00 | 0.00 | 0.00 | 28 | 995.8 |
| 20260507030019 | 83 | 159 | 0.0 | 1.0 | 0.00 | 0.00 | 0.00 | 26 | 995.7 |
| 20260507024517 | 84 | 160 | 0.0 | 2.0 | 0.00 | 0.00 | 0.00 | 25 | 995.5 |
| 20260507023015 | 85 | 206 | 0.0 | 4.0 | 0.00 | 0.00 | 0.00 | 24 | 995.5 |
| 20260507021515 | 87 | 199 | 1.0 | 5.0 | 0.00 | 0.00 | 0.00 | 23 | 995.5 |
| 20260507020015 | 90 | 218 | 3.0 | 6.0 | 0.00 | 0.00 | 0.00 | 21 | 995.5 |
| 20260507013012 | 90 | 232 | 5.0 | 8.0 | 0.00 | 0.00 | 0.00 | 19 | 995.5 |
| 20260507011508 | 90 | 231 | 3.0 | 7.0 | 0.00 | 0.00 | 0.00 | 20 | 995.6 |
| 20260507010024 | 90 | 256 | 2.0 | 7.0 | 0.00 | 0.00 | 0.00 | 18 | 995.6 |
| 20260507004506 | 90 | 269 | 3.0 | 9.0 | 0.00 | 0.00 | 0.00 | 20 | 995.6 |
| 20260507003005 | 90 | 263 | 3.0 | 8.0 | 0.00 | 0.00 | 0.00 | 20 | 995.7 |
| 20260507001505 | 89 | 27 | 2.0 | 7.0 | 0.00 | 0.00 | 0.00 | 18 | 995.7 |
| 20260507000003 | 90 | 319 | 5.0 | 16.0 | 0.00 | 0.00 | 0.00 | 19 | 995.7 |
| 20260506234608 | 89 | 89 | 0.0 | 9.0 | 0.00 | 0.00 | 0.00 | 19 | 995.7 |
| 20260506233106 | 90 | 307 | 3.0 | 9.0 | 0.00 | 0.00 | 0.00 | 20 | 996.0 |
| 20260506231556 | 89 | 263 | 5.0 | 9.0 | 0.00 | 0.00 | 0.00 | 20 | 996.3 |
| 20260506230054 | 89 | 336 | 0.0 | 9.0 | 0.00 | 0.00 | 0.00 | 20 | 996.4 |
| 20260506224605 | 88 | 330 | 1.0 | 14.0 | 0.00 | 0.00 | 0.00 | 21 | 996.6 |
| 20260506223054 | 88 | 285 | 4.0 | 9.0 | 0.00 | 0.00 | 0.00 | 21 | 996.9 |
| 20260506221545 | 89 | 136 | 2.0 | 7.0 | 0.00 | 0.00 | 0.00 | 21 | 997.2 |
| 20260506220054 | 87 | 117 | 4.0 | 7.0 | 0.00 | 0.00 | 0.00 | 21 | 997.5 |
| 20260506214542 | 87 | 238 | 2.0 | 8.0 | 0.00 | 0.00 | 0.00 | 21 | 997.8 |
| 20260506213040 | 86 | 246 | 5.0 | 8.0 | 0.00 | 0.00 | 0.00 | 22 | 998.1 |
| 20260506211547 | 85 | 241 | 3.0 | 10.0 | 0.00 | 0.00 | 0.00 | 23 | 998.4 |
| 20260506210038 | 84 | 169 | 4.0 | 9.0 | 0.00 | 0.00 | 0.00 | 23 | 998.7 |
| 20260506204539 | 85 | 265 | 6.0 | 11.0 | 0.00 | 0.00 | 0.00 | 24 | 998.8 |
| 20260506203036 | 84 | 282 | 3.0 | 10.0 | 0.00 | 0.00 | 0.00 | 23 | 999.0 |
| 20260506201536 | 85 | 232 | 3.0 | 9.0 | 0.00 | 0.00 | 0.00 | 23 | 999.2 |
| 20260506200035 | 83 | 257 | 3.0 | 7.0 | 0.00 | 0.00 | 0.00 | 25 | 999.3 |
| 20260506194537 | 83 | 240 | 4.0 | 12.0 | 0.00 | 0.00 | 0.00 | 25 | 999.6 |
| 20260506193031 | 82 | 340 | 0.0 | 10.0 | 0.00 | 0.00 | 0.00 | 26 | 999.8 |
| 20260506191529 | 82 | 132 | 1.0 | 8.0 | 0.00 | 0.00 | 0.00 | 26 | 999.9 |
| 20260506190027 | 82 | 200 | 3.0 | 9.0 | 0.00 | 0.00 | 0.00 | 27 | 1000.1 |
| 20260506184529 | 81 | 69 | 2.0 | 8.0 | 0.00 | 0.00 | 0.00 | 27 | 1000.4 |
| 20260506183023 | 80 | 199 | 2.0 | 6.0 | 0.00 | 0.00 | 0.00 | 27 | 1000.6 |
| 20260506181521 | 79 | 129 | 4.0 | 9.0 | 0.00 | 0.00 | 0.00 | 28 | 1000.7 |
| 20260506180018 | 78 | 108 | 2.0 | 8.0 | 0.00 | 0.00 | 0.00 | 30 | 1000.8 |
| 20260506174517 | 77 | 250 | 2.0 | 7.0 | 0.00 | 0.00 | 0.00 | 30 | 1000.9 |
| 20260506171602 | 76 | 182 | 0.0 | 6.0 | 0.00 | 0.00 | 0.00 | 31 | 1000.9 |
| 20260506170104 | 76 | 198 | 3.0 | 7.0 | 0.00 | 0.00 | 0.00 | 31 | 1000.9 |
| 20260506164552 | 75 | 138 | 2.0 | 6.0 | 0.00 | 0.00 | 0.00 | 32 | 1001.1 |
| 20260506163049 | 74 | 162 | 2.0 | 7.0 | 0.00 | 0.00 | 0.00 | 33 | 1001.1 |
| 20260506161549 | 73 | 117 | 2.0 | 8.0 | 0.00 | 0.00 | 0.00 | 35 | 1001.1 |
| 20260506160057 | 72 | 214 | 2.0 | 6.0 | 0.00 | 0.00 | 0.00 | 36 | 1001.1 |
| 20260506154540 | 70 | 159 | 2.0 | 6.0 | 0.00 | 0.00 | 0.00 | 36 | 1001.1 |
| 20260506153037 | 70 | 153 | 1.0 | 5.0 | 0.00 | 0.00 | 0.00 | 37 | 1001.1 |
| 20260506151534 | 68 | 146 | 1.0 | 5.0 | 0.00 | 0.00 | 0.00 | 39 | 1001.0 |
| 20260506150032 | 67 | 151 | 2.0 | 6.0 | 0.00 | 0.00 | 0.00 | 39 | 1000.8 |
| 20260506144531 | 66 | 193 | 1.0 | 5.0 | 0.00 | 0.00 | 0.00 | 39 | 1000.8 |
| 20260506143034 | 65 | 157 | 1.0 | 5.0 | 0.00 | 0.00 | 0.00 | 40 | 1000.6 |
| 20260506141529 | 64 | 194 | 2.0 | 5.0 | 0.00 | 0.00 | 0.00 | 42 | 1000.5 |
| 20260506140030 | 63 | 123 | 1.0 | 5.0 | 0.00 | 0.00 | 0.00 | 44 | 1000.5 |
| 20260506134526 | 62 | 163 | 0.0 | 2.0 | 0.00 | 0.00 | 0.00 | 45 | 1000.4 |
| 20260506133023 | 61 | 138 | 1.0 | 3.0 | 0.00 | 0.00 | 0.00 | 46 | 1000.1 |
| 20260506131538 | 60 | 126 | 0.0 | 2.0 | 0.00 | 0.00 | 0.00 | 48 | 999.8 |
| 20260506130035 | 59 | 103 | 0.0 | 2.0 | 0.00 | 0.00 | 0.00 | 50 | 999.6 |
| 20260506124517 | 58 | 202 | 0.0 | 0.0 | 0.00 | 0.00 | 0.00 | 52 | 999.5 |
| 20260506123015 | 57 | 202 | 0.0 | 1.0 | 0.00 | 0.00 | 0.00 | 55 | 999.3 |
| 20260506121513 | 58 | 202 | 0.0 | 0.0 | 0.00 | 0.00 | 0.00 | 52 | 999.2 |
| 20260506120017 | 58 | 202 | 0.0 | 0.0 | 0.00 | 0.00 | 0.00 | 51 | 999.2 |
| 20260506114509 | 58 | 202 | 0.0 | 0.0 | 0.00 | 0.00 | 0.00 | 51 | 999.1 |
| 20260506113006 | 59 | 202 | 0.0 | 0.0 | 0.00 | 0.00 | 0.00 | 50 | 998.9 |
| 20260506111504 | 59 | 202 | 0.0 | 1.0 | 0.00 | 0.00 | 0.00 | 49 | 998.7 |
| 20260506110003 | 59 | 215 | 0.0 | 4.0 | 0.00 | 0.00 | 0.00 | 50 | 998.6 |
| 20260506104600 | 60 | 218 | 0.0 | 1.0 | 0.00 | 0.00 | 0.00 | 48 | 998.5 |
| 20260506103057 | 61 | 218 | 0.0 | 2.0 | 0.00 | 0.00 | 0.00 | 46 | 998.4 |
| 20260506101555 | 61 | 209 | 0.0 | 2.0 | 0.00 | 0.00 | 0.00 | 45 | 998.3 |
| 20260506100052 | 62 | 217 | 0.0 | 5.0 | 0.00 | 0.00 | 0.00 | 45 | 998.1 |
| 20260506094614 | 62 | 168 | 1.0 | 6.0 | 0.00 | 0.00 | 0.00 | 44 | 998.1 |
| 20260506093046 | 63 | 238 | 0.0 | 5.0 | 0.00 | 0.00 | 0.00 | 41 | 998.0 |
| 20260506091543 | 65 | 159 | 2.0 | 4.0 | 0.00 | 0.00 | 0.00 | 40 | 997.9 |
| 20260506090040 | 67 | 227 | 3.0 | 7.0 | 0.00 | 0.00 | 0.00 | 38 | 997.8 |
| 20260506084639 | 67 | 128 | 4.0 | 8.0 | 0.00 | 0.00 | 0.00 | 38 | 997.8 |
| 20260506083038 | 67 | 107 | 2.0 | 6.0 | 0.00 | 0.00 | 0.00 | 39 | 997.8 |
| 20260506081537 | 67 | 141 | 3.0 | 5.0 | 0.00 | 0.00 | 0.00 | 38 | 997.9 |
| 20260506073036 | 66 | 142 | 2.0 | 5.0 | 0.00 | 0.00 | 0.00 | 40 | 997.6 |
| 20260506071535 | 66 | 144 | 1.0 | 5.0 | 0.00 | 0.00 | 0.00 | 41 | 997.6 |
| 20260506061522 | 67 | 198 | 2.0 | 5.0 | 0.00 | 0.00 | 0.00 | 39 | 996.9 |
| 20260506044513 | 72 | 141 | 3.0 | 6.0 | 0.00 | 0.00 | 0.00 | 29 | 995.7 |
| 20260506043013 | 72 | 121 | 3.0 | 7.0 | 0.00 | 0.00 | 0.00 | 29 | 995.6 |
| 20260506041515 | 72 | 128 | 4.0 | 7.0 | 0.00 | 0.00 | 0.00 | 29 | 995.4 |
| 20260506040011 | 72 | 129 | 4.0 | 8.0 | 0.00 | 0.00 | 0.00 | 29 | 995.3 |
| 20260506034511 | 73 | 148 | 2.0 | 7.0 | 0.00 | 0.00 | 0.00 | 28 | 995.1 |